Regional Weather Roundup
Issued by NWS Wakefield, VA

Home | Current Version | Previous Version | Graphics & Text | Print | Product List | Glossary On
Versions: 1 2 3 4 5 6 7 8 9 10 11 12 13 14 15 16 17 18 19 20 21 22 23 24 25 26 27
000
ASUS41 KAKQ 180315
RWRAKQ

REGIONAL WEATHER ROUNDUP
NATIONAL WEATHER SERVICE WAKEFIELD VA
1100 PM EDT THU AUG 17 2017

Note: "fair" indicates few or no clouds below 12,000 feet with no
significant weather and/or obstructions to visibility. * = Denotes
station may not report precipitation (e.g., rain,snow,etc.),
thunder or fog.

VAZ042-051-052>054-056-180400-
NORTHERN VIRGINIA

CITY           SKY/WX    TMP DP  RH WIND       PRES   REMARKS
WASH NATIONAL  CLOUDY    81  75  82 S9        29.94F
DULLES         CLOUDY    79  74  84 S8        29.94S
FORT BELVOIR   PTCLDY    77  73  86 SE3       29.93F
QUANTICO       CLOUDY    81  77  88 S7        29.94F
FREDERICKSBRG* CLOUDY    79  74  85 CALM      29.93S
STAFFORD*      CLOUDY    77  75  96 CALM      29.98S
WARRENTON      CLOUDY    78  72  80 CALM      29.94S
CULPEPER*      CLOUDY    79  76  90 CALM      29.95S
MANASSAS*      CLOUDY    77  73  87 S5        29.94F
LEESBURG*      CLOUDY    81  75  83 SW6       29.95S
WINCHESTER     CLOUDY    73  72  94 S7        29.94S THUNDER
FRONT ROYAL*   CLOUDY    77  75  94 SE3       29.93F
LURAY*         CLOUDY    79  73  83 CALM      29.95F
$$

VAZ048-049-060>072-079>083-180400-
CENTRAL AND SOUTH CENTRAL VIRGINIA

CITY           SKY/WX    TMP DP  RH WIND       PRES   REMARKS
RICHMOND       PTCLDY    78  74  87 SE6       29.94F
CHESTERFIELD*  FAIR      77  75  93 S3        29.96F
PETERSBURG*    CLOUDY    75  75 100 S3        29.96F
HANOVER        CLEAR     79  73  82 S6        29.96F
TAPPAHANNOCK*  CLEAR     77  73  88 CALM      29.96F
QUINTON*       FAIR      77  76  96 SE3       29.94F
CHARLOTTSVILLE PTCLDY    78  76  93 CALM      29.95F
GORDONSVILLE*  CLOUDY    77  77 100 CALM      29.95S
ORANGE*        CLOUDY    77  73  88 CALM      29.95S
LOUISA*        CLOUDY    79  73  83 CALM      29.95F
BUMPASS*       FAIR      78  76  96 CALM      29.95S
FARMVILLE*     CLEAR     78  76  94 CALM      29.95S
CREWE*         FAIR      77  73  86 S3        29.95F
FORT PICKETT*  FAIR     N/A N/A N/A S12       29.97S
CHASE CITY*    FAIR      77  77  99 SE3       29.97S
CLARKSVILLE*   FAIR      75  75 100 S5        29.96F
SOUTH HILL*    CLEAR     75  75 100 S6        30.02F
LAWRENCEVILLE* FAIR      76  75  96 S3        29.97S
EMPORIA*         N/A     75  73  94 SE5       29.98S
$$

VAZ088>098-180400-
SOUTHEAST VIRGINIA

CITY           SKY/WX    TMP DP  RH WIND       PRES   REMARKS
NORFOLK        CLOUDY    80  75  84 S10       29.97F
VIRGINIA BEACH MOCLDY    79  73  82 S6        29.97F
NORFOLK NAVAL  PTCLDY    80  73  79 S6        29.98F
WEST POINT*    CLEAR     79  73  83 SE6       29.96F
SALUDA*        FAIR      77  76  96 S5        29.95F
NEWPORT NEWS   CLOUDY    80  73  79 S9        29.97F
LANGLEY AFB    NOT AVBL
FORT EUSTIS    NOT AVBL
WILLIAMSBURG*  CLEAR     81  75  83 CALM      29.97F
HR EXEC AP*    FAIR      75  72  88 S3        29.95F
FRANKLIN*      PTCLDY    76  74  92 S5        29.98S
US460-WAKEFLD  CLOUDY    77  75  93 VRB3      29.96F
$$

VAZ020-022-025-037-045-180400-
WEST CENTRAL AND SOUTHWEST VIRGINIA

CITY           SKY/WX    TMP DP  RH WIND       PRES   REMARKS
STAUNTON*      MOCLDY    73  72  95 CALM      29.99F
WAYNESBORO*    PTCLDY    74  74 100 SE6       30.00S
HOT SPRINGS VA CLEAR     72  68  88 CALM      30.13F
LYNCHBURG      MOCLDY    78  74  87 S8        29.98S
DANVILLE       PTCLDY    78  76  93 CALM      29.96F
SOUTH BOSTON*  FAIR      77  75  95 CALM      29.96F
MARTINSVILLE   MOCLDY    75  74  96 CALM      30.00S
ROANOKE        CLEAR     75  74  96 CALM      30.00S
BLACKSBURG     CLEAR     73  71  94 CALM      30.07F
DUBLIN*        CLEAR     74  72  93 CALM      30.06S
MARION*        CLEAR     72  26  17 SW6       30.11S
HILLSVILLE*    CLOUDY    73  68  86 CALM      30.08F
RICHLANDS*     FAIR      73  64  74 CALM      30.10S
WISE*          CLEAR     72  72 100 SW6       30.09F
ABINGDON*      CLEAR     74  72  93 CALM      30.07S
$$

MDZ021>025-VAZ099-100-180400-
SOUTHERN MARYLAND AND THE DELMARVA PENINSULA

CITY           SKY/WX    TMP DP  RH WIND       PRES   REMARKS
PATUXENT RIVER PTCLDY    76  72  87 S5        29.95F
BAY BRIDGE APT CLEAR     79  72  78 S9        29.95S
LEONARDTOWN    CLEAR     75  70  83 CALM      29.97F
DOVER          CLEAR     75  68  78 SE7       29.95S
GEORGETOWN     CLEAR     76  70  82 S8        29.98S
EASTON         CLEAR     77  71  80 S6        30.00
CAMBRIDGE      CLEAR     73  72  94 SE6       29.96F
SALISBURY      CLEAR     74  72  93 SE6       29.98S
OCEAN CITY     CLEAR     77  75  93 S6        29.99F
WALLOPS ISLAND CLEAR     76  75  97 S12       29.99S
ACCOMACK*      CLEAR     77  74  91 S7        29.98S
$$

NCZ012>017-030>032-180400-
NORTH CENTRAL AND EASTERN NORTH CAROLINA

CITY           SKY/WX    TMP DP  RH WIND       PRES   REMARKS
ROANOKE RAPIDS FAIR      73  73 100 CALM      29.98S
RALEIGH        PTCLDY    77  74  90 S7        29.99S
ELIZABETH CITY MOCLDY    79  75  87 S7        29.99S
AHOSKIE*         N/A     74  74  99 CALM      29.98S FOG
EDENTON*       MOCLDY    81  75  82 CALM      30.00R
CURRITUCK*     MOCLDY    79  74  84 CALM      30.00S
KILL DEVIL HLS MOCLDY    80  72  78 CALM      30.00R
MANTEO         MOCLDY    81  74  78 SW12      30.01R
CAPE HATTERAS  PTCLDY    83  75  77 S9        30.02R
TARBORO*       NOT AVBL
GOLDSBORO      CLEAR     76  76 100 SE1       29.98S
WASHINGTON     PTCLDY    80  77  92 S6        30.00R
GREENVILLE     PTCLDY    81  79  94 S5        30.01R
NEW BERN       CLOUDY    80  79  96 SE3       30.01R
WILMINGTON     MOCLDY    78  77  96 NE3       29.99R
$$

VAZ048-180400-
ELSEWHERE

CITY           SKY/WX    TMP DP  RH WIND       PRES   REMARKS
HARRISBURG PA  CLOUDY    79  74  84 S8        29.93S
BALTIMORE      MOCLDY    77  74  90 SE5       29.94F
ANNAPOLIS      PTCLDY    79  77  94 S7        29.94F
ANDREWS AFB    CLOUDY    75  71  88 S7        29.94F
PHILADELPHIA   PTCLDY    77  71  82 S7        29.97R
HENDERSON NC   CLEAR     73  71  93 S8        29.98S
GREENSBORO     CLOUDY    81  76  84 S9        29.98S
ROCKY MOUNT    CLOUDY    76  75  97 CALM      29.99S
$$

VAZ100-180400-
MARINE

STATION/POSITION TIME  TEMP    WIND        PRES    WAVE   SWELL
                       AIR SEA DIR/SP/G            HT/PER HT/PER
                 (UTC) (F)     (DEG/KT/KT) (MB)    (FT/S) (FT/S)
BRANDYWINE LGT   0242   77     180/ 14/ 15 1015.4R
CAPE MAY NJ      0248   76 78  170/  6/  9 1014.7S
LEWES DE         0242   77 77              1014.8R
15NM E FENWICK I 0250   77 78  170/ 14/ 16 1015.8S   2/ 7   2/ 7
OCEAN-CITY-INLET 0248   77 77  210/ 11/ 15 1015.9S
WACHAPREAGUE VA  0248   79 84  200/ 10/ 15 1015.1F
THOMAS POINT MD  0300   80 80  180/ 16/ 18   N/A
GOOSES REEF MD   0300   81 79  170/ 14/ 17 1014.5    2/ 3
COVE POINT MD    0248   80     190/ 10/ 13 1014.9F
SOLOMONS ISLAND  0248   79 81  140/  5/  7   N/A
BISHOPS HEAD MD  0248   80 82  170/ 14/ 17 1014.8R
PINEY POINT MD   0248          180/  9/ 10   N/A
POTOMAC MD       0300   80 80  180/ 14/ 16 1013.6    2/ 3
CAMBRIDGE MD     0248   77 81              1015.3F
LEWISETTA VA     0248   79 84  190/  9/ 11 1014.1F
RAPPAHANNOCK LGT 0248          140/ 12/ 14 1015.5F
STINGRAY PT      0300   80 81  190/ 16/ 17 1014.8    2/ 3
YORK RVR RNG VA  0248   81     190/ 14/ 15 1015.0F
YORKTOWN VA      0248   80 82  180/  6/  9 1014.2F
JAMESTOWN VA     0300      83  180/  8/ 10   N/A
DOMINION TERM VA 0248   81     170/ 11/ 12 1014.8F
KIPTOPEKE VA     0242      80  170/ 14/ 17   N/A
CHES BAY BRIDGE  0248   79 76  190/ 11/ 13 1014.8F
CAPE HENRY VA    0248   78     160/  8/  9   N/A
WILLOUBY STN VA  0242   81     170/ 12/ 14 1014.7F
S CRANEY ISL VA  0248   81     180/ 11/ 13 1014.7F
CAPE HENRY BUOY  0300      79                N/A     3/ 3
1ST LANDING BUOY 0300   79 78              1014.8    1/ 3
64NM E OF VA BCH 0250   79 79  190/  6/  8 1016.8R   2/ 7   2/ 7
DUCK PIER NC     0248   81 76  170/ 10/ 13 1015.6R
44100 DUCK FRF   0235      80                N/A     2/ 7
44056 DUCK FRF   0300      79                N/A     2/ 6
OREGON INLET NC  0242   81 83  170/  9/ 12 1016.2R
HATTERAS NC      0248   83 85  170/  5/  9 1016.3R
DIAMOND SHLS NC  0250   84 86  180/ 10/ 12 1016.3R   2/ 7   2/ 7
CAPE LOOKOUT NC  0300   83     160/  9/ 10 1015.7R
$$




USA.gov is the U.S. government's official web portal to all federal, state and local government web resources and services.